[[{"header":{"parameterUnit":"m.s-1","parameterCategory":1,"la1":30.2991,"la2":30.254,"lo1":-89.0895,"lo2":-89.0444,"dy":0.0017,"dx":0.0017,"nx":28,"ny":28,"refTime":"2025-08-16T03:00:00:Z","depth":0,"parameterNumber":2,"parameterNumberName":"U-component_of_WINDS"},"data":[0,0,0,0,0,0,0,0,0,0,0,0,0,0,0,0,0,0,0,0,0,0,0,0,0,0,0,0,0,0,0,0,0,0,0,0,0,0,0,0,0,0,0,0,0,0,0,0,0,0,0,0,0,0,0,0,0,0,2.1534,2.1534,0,2.156,2.1561,2.1561,2.1524,2.1522,2.1521,2.152,2.1545,2.1546,2.1548,0,0,0,0,0,0,0,0,0,0,0,0,0,2.145,2.1452,2.1534,2.1534,2.1535,2.156,2.1561,2.1561,2.1524,2.1522,2.1521,2.1519,2.1544,2.1546,2.1549,0,0,0,0,0,0,0,0,0,0,0,0,0,2.1483,2.1453,2.1534,2.1519,2.1518,2.156,2.1561,2.1561,2.1524,2.1522,2.152,2.1518,2.1543,2.1546,2.1549,2.1606,0,0,2.1557,2.1559,0,0,0,0,0,0,0,0,2.1481,2.1486,2.1521,2.152,2.1519,2.1537,2.154,2.1576,2.1525,2.1522,2.152,2.1517,2.1543,2.1546,2.1555,2.1607,2.1608,2.1558,2.1559,2.1561,2.1561,0,0,0,0,0,0,0,2.1479,2.1484,2.1544,2.1522,2.1521,2.1511,2.1513,2.1547,2.1543,2.1522,2.1519,2.1523,2.1543,2.1553,2.1556,2.1608,2.1558,2.156,2.1562,2.1563,2.1708,2.171,0,0,0,0,0,0,2.1478,2.1483,2.1543,2.1545,2.1495,2.1514,2.1517,2.1533,2.1543,2.1543,2.1525,2.1521,2.1549,2.1552,2.1556,2.1623,2.1561,2.1563,2.1565,2.1705,2.1708,2.171,0,0,0,0,0,0,2.1477,2.1484,2.1542,2.1513,2.152,2.1518,2.1536,2.1535,2.1545,2.1545,2.1544,2.1536,2.1547,2.1552,2.1594,2.1624,2.1565,2.1567,2.1703,2.1706,2.1709,2.1758,0,0,0,0,0,0,2.1474,2.1484,2.1506,2.1514,2.1522,2.158,2.1538,2.1537,2.155,2.1546,2.1555,2.1555,2.1546,2.159,2.1597,2.1626,2.1569,2.17,2.1704,2.1708,2.1753,2.1762,2.177,0,0,0,0,0,2.1472,2.1518,2.1507,2.1515,2.1549,2.1582,2.1586,2.1576,2.1553,2.1574,2.1574,2.1554,2.162,2.1594,2.1602,2.1633,2.1698,2.1703,2.1708,2.175,2.176,2.177,0,0,0,0,0,0,2.1512,2.1519,2.1507,2.1557,2.1569,2.1576,2.1603,2.1588,2.1606,2.1601,2.1587,2.159,2.1634,2.1638,2.1609,2.1688,2.1655,2.1661,2.1684,2.1694,2.1702,2.17,2.1572,0,0,0,0,0,2.1527,2.1554,2.1558,2.1602,2.1609,2.1605,2.1619,2.161,2.1622,2.1626,2.163,2.1641,2.1664,2.168,2.1701,2.1754,2.1755,2.1779,2.1787,2.1794,2.1799,2.1828,2.1838,2.1726,2.1726,2.1726,0,0,2.1558,2.1565,2.1583,2.1611,2.1619,2.1646,2.1609,2.164,2.166,2.1631,2.167,2.1673,2.1685,2.1733,2.1754,2.1737,2.1831,2.18,2.1805,2.1807,2.1834,2.1844,2.1854,2.1729,2.1729,2.1728,0,0,2.1629,2.1637,2.1674,2.1684,2.1697,2.1694,2.1704,2.1712,2.1713,2.1753,2.1731,2.1755,2.1795,2.1804,2.1814,2.1889,2.1871,2.1896,2.1938,2.1966,2.1975,2.1983,2.2009,2.2018,2.1902,2.1902,2.1902,0,2.1665,2.1706,2.1695,2.1728,2.174,2.1716,2.1754,2.1763,2.1783,2.1792,2.1773,2.1823,2.1829,2.1879,2.1897,2.1906,2.1916,2.1895,2.1975,2.1982,2.1989,2.2014,2.2024,2.1905,2.1905,2.1904,2.1904,0,2.175,2.1779,2.1808,2.1828,2.1844,2.1878,2.1873,2.189,2.188,2.1879,2.1919,2.1927,2.1949,2.196,2.195,2.2008,2.1997,2.1977,2.1943,2.2003,2.2026,2.2035,2.1909,2.1908,2.1907,2.1907,0,0,2.1846,2.186,2.1871,2.188,2.1893,2.1915,2.1949,2.1971,2.1986,2.2,2.2028,2.2063,2.2044,2.2055,2.2047,2.2071,2.2129,2.2047,2.2048,2.2062,2.2193,2.2207,2.2218,2.2118,2.212,2.2121,2.2191,0,2.1915,2.1974,2.1966,2.2022,2.2048,2.2026,2.2055,2.2067,2.2067,2.2088,2.2088,2.2113,2.2087,2.2094,2.2117,2.2117,2.2155,2.2112,2.2142,2.2144,2.2139,2.223,2.2246,2.2312,2.22,2.2202,2.2203,0,2.2004,2.2023,2.2082,2.2092,2.2102,2.2129,2.2148,2.217,2.2182,2.218,2.2194,2.2181,2.2214,2.218,2.2225,2.2196,2.2208,2.221,2.2212,2.2214,2.2176,2.2234,2.2333,2.2342,2.2217,2.2216,2.2215,0,2.2068,2.2107,2.2148,2.2156,2.2168,2.2187,2.2193,2.2203,2.2218,2.2235,2.2244,2.2265,2.2276,2.2292,2.2285,2.2261,2.2331,2.2297,2.233,2.233,2.2345,2.2344,2.2446,2.2354,2.2354,2.2354,2.2353,0,2.2146,2.2183,2.2176,2.2201,2.2242,2.2232,2.2272,2.2275,2.2284,2.2309,2.2291,2.2314,2.2304,2.2326,2.2321,2.2359,2.2364,2.2363,2.2361,2.2364,2.2364,2.2371,2.2366,2.2356,2.2356,2.2355,2.2355,0,2.2223,2.222,2.2263,2.2271,2.2274,2.2304,2.231,2.2333,2.2333,2.2364,2.2371,2.2369,2.2395,2.2389,2.2417,2.2413,2.2461,2.2453,2.2457,2.2455,2.2488,2.2485,2.2598,2.2612,2.2511,2.2512,2.2513,0,2.2273,2.2301,2.2312,2.2328,2.2335,2.2361,2.2375,2.2366,2.2382,2.2398,2.2419,2.2443,2.2462,2.2504,2.2505,2.2526,2.2519,2.2557,2.2521,2.2524,2.2518,2.2516,2.2519,2.2563,2.2565,2.2566,2.2566,0,2.2361,2.2358,2.238,2.2402,2.242,2.2436,2.2451,2.2464,2.2457,2.2476,2.2502,2.2517,2.2545,2.2569,2.2589,2.2594,2.2579,2.2578,2.2586,2.2589,2.259,2.2589,2.2475,2.2575,2.2574,2.2573,2.2573,2.2572,2.2425,2.2449,2.2461,2.2486,2.2496,2.2511,2.2533,2.2535,2.2557,2.258,2.2574,2.2603,2.2615,2.264,2.2648,2.267,2.2656,2.2669,2.2672,2.2675,2.2678,2.2587,2.2674,2.2674,2.2674,2.2673,2.2673,0,2.2512,2.2519,2.2542,2.2564,2.2583,2.2568,2.2584,2.2601,2.2627,2.264,2.2659,2.2689,2.2712,2.2715,2.2737,2.2755,2.2748,2.2761,2.2759,2.276,2.269,2.268,2.2766,2.2766,2.2766,2.2766,2.2766,2.2765,2.256,2.2599,2.2598,2.2642,2.2648,2.2678,2.2688,2.2701,2.271,2.2745,2.2765,2.2767,2.2775,2.2798,2.2818,2.2819,2.2827,2.2842,2.284,2.2774,2.2765,2.2756,2.2747,2.2844,2.2844,2.2907,2.2908,2.2908]},{"header":{"parameterUnit":"m.s-1","parameterCategory":1,"la1":30.2991,"la2":30.254,"lo1":-89.0895,"lo2":-89.0444,"dy":0.0017,"dx":0.0017,"nx":28,"ny":28,"refTime":"2025-08-16T03:00:00:Z","depth":0,"parameterNumber":3,"parameterNumberName":"V-component_of_WINDS"},"data":[0,0,0,0,0,0,0,0,0,0,0,0,0,0,0,0,0,0,0,0,0,0,0,0,0,0,0,0,0,0,0,0,0,0,0,0,0,0,0,0,0,0,0,0,0,0,0,0,0,0,0,0,0,0,0,0,0,0,-2.3218,-2.3219,0,-2.3307,-2.3308,-2.3309,-2.3314,-2.3313,-2.3312,-2.3311,-2.3402,-2.3405,-2.3409,0,0,0,0,0,0,0,0,0,0,0,0,0,-2.305,-2.3053,-2.3218,-2.3219,-2.322,-2.3307,-2.3308,-2.331,-2.3315,-2.3313,-2.3312,-2.3311,-2.3401,-2.3405,-2.3409,0,0,0,0,0,0,0,0,0,0,0,0,0,-2.313,-2.3054,-2.3218,-2.3233,-2.3235,-2.3307,-2.3309,-2.331,-2.3315,-2.3313,-2.3312,-2.331,-2.34,-2.3404,-2.3409,-2.3471,0,0,-2.3425,-2.3427,0,0,0,0,0,0,0,0,-2.3125,-2.3136,-2.323,-2.3232,-2.3235,-2.3298,-2.3283,-2.3364,-2.3315,-2.3285,-2.3311,-2.331,-2.3369,-2.3376,-2.3396,-2.3476,-2.348,-2.3425,-2.3428,-2.3431,-2.3432,0,0,0,0,0,0,0,-2.312,-2.3132,-2.3253,-2.3231,-2.3234,-2.3235,-2.3245,-2.3298,-2.3334,-2.3287,-2.3288,-2.3298,-2.337,-2.3391,-2.3398,-2.3481,-2.3425,-2.343,-2.3433,-2.3435,-2.3616,-2.3618,0,0,0,0,0,0,-2.3111,-2.3127,-2.325,-2.3256,-2.3175,-2.324,-2.325,-2.3279,-2.3334,-2.334,-2.33,-2.3298,-2.3383,-2.3392,-2.3402,-2.3478,-2.3431,-2.3435,-2.3438,-2.3615,-2.3617,-2.3619,0,0,0,0,0,0,-2.3108,-2.3122,-2.3247,-2.3192,-2.3208,-2.3244,-2.3277,-2.3282,-2.3304,-2.3343,-2.3349,-2.3315,-2.3383,-2.3394,-2.3454,-2.3481,-2.3438,-2.3442,-2.3612,-2.3615,-2.3618,-2.3631,0,0,0,0,0,0,-2.3103,-2.3121,-2.3145,-2.3192,-2.3211,-2.3298,-2.3278,-2.3285,-2.3312,-2.3312,-2.3359,-2.3366,-2.3382,-2.3447,-2.3459,-2.3487,-2.3446,-2.361,-2.3614,-2.3617,-2.3628,-2.3634,-2.3638,0,0,0,0,0,-2.3097,-2.3145,-2.3146,-2.3161,-2.3242,-2.33,-2.331,-2.3329,-2.3315,-2.3339,-2.3364,-2.3364,-2.3476,-2.3453,-2.3467,-2.3497,-2.3609,-2.3613,-2.3617,-2.3626,-2.3633,-2.3638,0,0,0,0,0,0,-2.3099,-2.3151,-2.3153,-2.3218,-2.3254,-2.33,-2.3331,-2.3335,-2.3376,-2.3373,-2.3394,-2.3405,-2.3464,-2.3487,-2.3459,-2.356,-2.3541,-2.3548,-2.3543,-2.355,-2.3555,-2.3548,-2.345,0,0,0,0,0,-2.3107,-2.315,-2.3193,-2.3246,-2.3264,-2.3295,-2.3321,-2.3332,-2.337,-2.3386,-2.3415,-2.3452,-2.3496,-2.3524,-2.3567,-2.3632,-2.3642,-2.366,-2.3665,-2.3669,-2.3674,-2.3711,-2.3719,-2.3632,-2.3632,-2.3632,0,0,-2.3124,-2.3158,-2.3183,-2.3247,-2.3277,-2.3321,-2.3308,-2.3354,-2.3387,-2.3393,-2.3451,-2.3474,-2.3517,-2.358,-2.3609,-2.36,-2.3701,-2.3674,-2.3677,-2.368,-2.3716,-2.3724,-2.3731,-2.3635,-2.3634,-2.3634,0,0,-2.3177,-2.3207,-2.3254,-2.3284,-2.3329,-2.335,-2.3361,-2.3407,-2.3423,-2.3482,-2.3487,-2.3526,-2.3601,-2.3631,-2.3656,-2.3722,-2.3723,-2.3735,-2.3762,-2.3797,-2.3804,-2.381,-2.3833,-2.3841,-2.3741,-2.3741,-2.3741,0,-2.3192,-2.3258,-2.3278,-2.3325,-2.3353,-2.3361,-2.3409,-2.3437,-2.3494,-2.3513,-2.3503,-2.3597,-2.3626,-2.3696,-2.3713,-2.3733,-2.3746,-2.3729,-2.3801,-2.3808,-2.3814,-2.3836,-2.3845,-2.3742,-2.3742,-2.3742,-2.3742,0,-2.3274,-2.332,-2.3353,-2.3408,-2.344,-2.3487,-2.3514,-2.3544,-2.3553,-2.3574,-2.3635,-2.367,-2.372,-2.3738,-2.3747,-2.381,-2.3803,-2.3797,-2.3778,-2.3823,-2.3844,-2.3853,-2.3744,-2.3743,-2.3743,-2.3743,0,0,-2.333,-2.3396,-2.3408,-2.3433,-2.3484,-2.352,-2.3568,-2.3617,-2.3642,-2.3681,-2.3722,-2.3785,-2.378,-2.3809,-2.3821,-2.3853,-2.3902,-2.3843,-2.3844,-2.3852,-2.3974,-2.3978,-2.3987,-2.3904,-2.3906,-2.3907,-2.397,0,-2.3388,-2.3474,-2.3493,-2.3567,-2.361,-2.3618,-2.366,-2.3696,-2.3717,-2.3757,-2.378,-2.3825,-2.3815,-2.3832,-2.3864,-2.389,-2.3927,-2.3885,-2.3941,-2.3943,-2.393,-2.3998,-2.4003,-2.406,-2.3979,-2.398,-2.3981,0,-2.3467,-2.3508,-2.3586,-2.3632,-2.3651,-2.3688,-2.3735,-2.3773,-2.3814,-2.3827,-2.386,-2.3869,-2.392,-2.3899,-2.3968,-2.394,-2.3964,-2.398,-2.3983,-2.3988,-2.3964,-2.4005,-2.4079,-2.4088,-2.3994,-2.3993,-2.3992,0,-2.3499,-2.3575,-2.3631,-2.3652,-2.3707,-2.3733,-2.3757,-2.3797,-2.3825,-2.3867,-2.3885,-2.3932,-2.3957,-2.3993,-2.4015,-2.3998,-2.4083,-2.4064,-2.4095,-2.4094,-2.4112,-2.411,-2.419,-2.4128,-2.4128,-2.4128,-2.4128,0,-2.3562,-2.3609,-2.3646,-2.3681,-2.3734,-2.3757,-2.3809,-2.3833,-2.3868,-2.3907,-2.3918,-2.3955,-2.3982,-2.4022,-2.404,-2.4095,-2.4106,-2.4118,-2.4122,-2.4117,-2.4116,-2.4133,-2.4129,-2.413,-2.413,-2.4129,-2.4129,0,-2.3606,-2.3633,-2.3695,-2.3743,-2.3756,-2.3793,-2.3833,-2.3867,-2.3889,-2.3939,-2.3952,-2.3987,-2.4035,-2.4061,-2.4121,-2.4133,-2.4195,-2.4197,-2.4181,-2.4183,-2.4212,-2.4209,-2.4306,-2.4319,-2.4249,-2.425,-2.425,0,-2.3644,-2.3681,-2.3732,-2.376,-2.3784,-2.3828,-2.3858,-2.3882,-2.3912,-2.3962,-2.399,-2.4039,-2.4079,-2.4156,-2.4187,-2.4233,-2.4236,-2.4267,-2.4243,-2.4237,-2.4236,-2.4234,-2.4237,-2.4271,-2.4271,-2.4272,-2.4272,0,-2.3708,-2.372,-2.3762,-2.3809,-2.3844,-2.3883,-2.392,-2.3942,-2.3972,-2.4006,-2.4056,-2.4087,-2.4149,-2.4198,-2.4247,-2.4272,-2.4277,-2.428,-2.4289,-2.4284,-2.4273,-2.4279,-2.4192,-2.4277,-2.4277,-2.4276,-2.4276,-2.4276,-2.375,-2.3783,-2.3825,-2.3872,-2.3903,-2.3938,-2.3973,-2.4,-2.4042,-2.4094,-2.4106,-2.4159,-2.4199,-2.4266,-2.4292,-2.4334,-2.4328,-2.4342,-2.4345,-2.4348,-2.4349,-2.4267,-2.4343,-2.4343,-2.4343,-2.4343,-2.4342,0,-2.3815,-2.3842,-2.3885,-2.3938,-2.3975,-2.3978,-2.402,-2.405,-2.4097,-2.4134,-2.4174,-2.4232,-2.428,-2.4314,-2.4363,-2.4389,-2.4393,-2.4401,-2.4399,-2.4405,-2.4352,-2.4339,-2.4397,-2.4397,-2.4397,-2.4397,-2.4397,-2.4397,-2.3852,-2.3909,-2.3925,-2.3997,-2.4025,-2.4076,-2.41,-2.4133,-2.4163,-2.4227,-2.4267,-2.429,-2.4326,-2.4378,-2.4421,-2.443,-2.4448,-2.4456,-2.4465,-2.4414,-2.4409,-2.4403,-2.439,-2.4459,-2.4459,-2.4514,-2.4515,-2.4515]}]]